Home   Weather   Fatehpur   Past weeks

Flag for India Past Weather in Fatehpur, Uttar Pradesh, India — Yesterday and Last 2 Weeks

Now
90 °F

Scattered clouds.


Feels Like: 105 °F
Forecast: 79 / 89 °F
Wind: No wind

Location: Lucknow / Amausi

Current Time: Sep 27, 2016 at 2:11:45 PM

Latest Report: Sep 27, 2016 at 1:30 PM


Visibility: 2 mi

Pressure: 29.71 "Hg

Humidity: 71%

Dew Point: 79 °F

Location of FatehpurLocation

Past Weather in Fatehpur — Graph

°F

Fatehpur Temperature Yesterday

Maximum temperature yesterday: 90 °F (at 4:00 PM)
Minimum temperature yesterday: 79 °F (at 2:00 AM)
Average temperature yesterday: 83 °F

High & Low Weather Summary for the Past Weeks

 TemperatureHumidityPressure
High99 °F (Sep 20, 12:30 PM)100% (Sep 12, 10:00 PM)29.83 "Hg (Sep 12, 10:00 PM)
Low77 °F (Sep 14, 12:00 AM)60% (Sep 20, 12:30 PM)29.53 "Hg (Sep 20, 4:30 PM)
Average85 °F88%29.68 "Hg
* Reported Sep 12 12:30 PM — Sep 27 1:00 PM, Fatehpur, Weather by CustomWeather, © 2016

Note: Actual official high and low records may vary slightly from our data, if they occured in-between our weather recording intervals... More about our weather records

Advertising

Fatehpur Weather History for the Previous 24 Hours

Scroll right to see more
 ConditionsComfort  
Time TempWeatherWind HumidityBarometerVisibility
1:00 PM
Tue, Sep 27
88 °FBroken clouds.No wind75%29.71 "Hg2 mi
12:30 PM88 °FBroken clouds.No wind75%29.74 "Hg2 mi
12:00 PM88 °FBroken clouds.No wind75%29.77 "Hg2 mi
11:30 AM86 °FBroken clouds.No wind79%29.77 "Hg2 mi
11:00 AM84 °FBroken clouds.2 mph84%29.80 "Hg2 mi
10:30 AM82 °FFog.2 mph89%29.80 "Hg1 mi
10:00 AM82 °FFog.2 mph89%29.80 "Hg1 mi
9:30 AM81 °FFog.2 mph94%29.77 "Hg1 mi
9:00 AM79 °FFog.2 mph94%29.77 "Hg1 mi
8:30 AM79 °FFog.2 mph94%29.77 "Hg1 mi
8:00 AM79 °FFog.2 mph94%29.77 "Hg1 mi
7:30 AM77 °FFog.2 mph100%29.74 "Hg1 mi
7:00 AM77 °FFog.2 mph100%29.74 "Hg1 mi
6:30 AM77 °FFog.2 mph100%29.74 "Hg1 mi
6:00 AM77 °FFog.No wind100%29.74 "Hg1 mi
5:30 AM77 °FPassing clouds.No wind100%29.71 "Hg1 mi
5:00 AM77 °FPassing clouds.No wind100%29.71 "Hg1 mi
4:00 AM77 °FPassing clouds.No wind100%29.71 "Hg2 mi
3:00 AM79 °FPassing clouds.No wind94%29.71 "Hg2 mi
2:00 AM79 °FPassing clouds.No wind94%29.74 "Hg2 mi
1:00 AM79 °FPassing clouds.No wind94%29.74 "Hg2 mi
12:00 AM79 °FPassing clouds.No wind94%29.74 "Hg2 mi
11:00 PM
Mon, Sep 26
79 °FPassing clouds.No wind100%29.74 "Hg2 mi
10:00 PM81 °FPassing clouds.No wind94%29.74 "Hg2 mi
9:00 PM81 °FPassing clouds.No wind94%29.71 "Hg2 mi
8:00 PM81 °FPassing clouds.No wind94%29.71 "Hg2 mi
7:30 PM81 °FPassing clouds.No wind94%29.68 "Hg2 mi
7:00 PM82 °FPassing clouds.No wind94%29.68 "Hg2 mi
6:30 PM88 °FPassing clouds.No wind75%29.65 "Hg2 mi
6:00 PM84 °FScattered clouds.No wind84%29.65 "Hg2 mi
5:30 PM88 °FScattered clouds.No wind75%29.65 "Hg2 mi
5:00 PM88 °FScattered clouds.2 mph75%29.65 "Hg2 mi
4:30 PM88 °FScattered clouds.3 mph75%29.65 "Hg2 mi
4:00 PM90 °FScattered clouds.2 mph71%29.65 "Hg2 mi
3:30 PM88 °FBroken clouds.2 mph75%29.65 "Hg2 mi
3:00 PM88 °FBroken clouds.5 mph75%29.65 "Hg2 mi
2:00 PM88 °FBroken clouds.2 mph75%29.68 "Hg2 mi
Weather by CustomWeather, © 2016

See weather overviewHow to use our weather pages